Location: Newark
(40.9833°N, 0.0333°W)
Time: 02:31:07
(UTC+00:00)

Altair - Pass Details

Date: 05 November 2020
Orbit: 1502 x 1682 km, 47.2° (Epoch: 02 December)

Event Time Altitude Azimuth Distance (km) Brightness Sun altitude
Rises 02:29:45 0° 226° (SW) 4,624 - -46.3°
Reaches altitude 10° 02:32:47 10° 223° (SW) 3,644 - -45.7°
Maximum altitude 02:41:47 66° 144° (SE) 1,628 - -44.1°
Exits shadow 02:44:01 52° 90° (E) 1,825 7.9 -43.7°
Drops below altitude 10° 02:51:01 10° 65° (ENE) 3,726 10.1 -42.5°
Sets 02:54:08 0° 63° (ENE) 4,733 10.9 -41.9°
